NJAM2 EGCC-EGNR

Flight info

Callsign NJAM2
Flight time 0h 10m
Altitude 6000
Route VISUAL MARKERS
Aircraft A21N/M-WGIBE/S

Departure

Time 2026-04-26 13:42
Airport Manchester Airport (EGCC)

Arrival

Time 2026-04-26 13:53
Airport Hawarden Airport (EGNR)
Time Latitude Longitude Altitude Speed Heading
2026-04-26 13:19 53.35765 -2.27556 249 ft 0 kts 50°
2026-04-26 13:25 53.35765 -2.27555 249 ft 0 kts 50°
2026-04-26 13:36 53.35771 -2.27543 249 ft 0 kts 57°
2026-04-26 13:36 53.35777 -2.27462 248 ft 1 kts 125°
2026-04-26 13:37 53.35717 -2.27456 248 ft 13 kts 221°
2026-04-26 13:37 53.35634 -2.27630 250 ft 11 kts 235°
2026-04-26 13:37 53.35628 -2.27646 251 ft 2 kts 199°
2026-04-26 13:37 53.35624 -2.27635 250 ft 3 kts 97°
2026-04-26 13:38 53.35618 -2.27574 249 ft 0 kts 106°
2026-04-26 13:38 53.35611 -2.27535 249 ft 0 kts 91°
2026-04-26 13:38 53.35644 -2.27418 247 ft 17 kts 54°
2026-04-26 13:38 53.35729 -2.27229 244 ft 26 kts 52°
2026-04-26 13:39 53.35850 -2.26965 240 ft 25 kts 55°
2026-04-26 13:39 53.35919 -2.26797 237 ft 13 kts 55°
2026-04-26 13:39 53.35996 -2.26624 236 ft 25 kts 51°
2026-04-26 13:39 53.36062 -2.26482 236 ft 13 kts 51°
2026-04-26 13:40 53.36107 -2.26391 231 ft 13 kts 49°
2026-04-26 13:40 53.36153 -2.26221 229 ft 9 kts 96°
2026-04-26 13:40 53.36133 -2.26174 229 ft 1 kts 168°
2026-04-26 13:40 53.36129 -2.26173 228 ft 0 kts 169°
2026-04-26 13:41 53.36113 -2.26171 228 ft 0 kts 178°
2026-04-26 13:41 53.36110 -2.26170 228 ft 1 kts 169°
2026-04-26 13:41 53.36062 -2.26138 229 ft 22 kts 168°
2026-04-26 13:42 53.35923 -2.26332 233 ft 53 kts 232°
2026-04-26 13:42 53.35484 -2.27250 247 ft 152 kts 231°
2026-04-26 13:42 53.34679 -2.28920 468 ft 208 kts 231°
2026-04-26 13:42 53.33744 -2.30987 1154 ft 235 kts 230°
2026-04-26 13:43 53.32495 -2.32869 1970 ft 251 kts 204°
2026-04-26 13:43 53.30754 -2.33335 2748 ft 251 kts 180°
2026-04-26 13:43 53.29130 -2.32913 2833 ft 243 kts 172°
2026-04-26 13:43 53.27453 -2.33592 3200 ft 271 kts 213°
2026-04-26 13:44 53.26150 -2.35826 3442 ft 265 kts 240°
2026-04-26 13:44 53.25482 -2.38711 4570 ft 255 kts 253°
2026-04-26 13:44 53.25057 -2.41443 6320 ft 247 kts 255°
2026-04-26 13:44 53.24678 -2.44362 6910 ft 266 kts 258°
2026-04-26 13:45 53.24357 -2.47460 7557 ft 282 kts 259°
2026-04-26 13:45 53.24053 -2.50769 8263 ft 294 kts 260°
2026-04-26 13:45 53.23775 -2.54222 8877 ft 308 kts 262°
2026-04-26 13:45 53.23607 -2.57874 9324 ft 317 kts 268°
2026-04-26 13:46 53.23736 -2.61409 9729 ft 310 kts 274°
2026-04-26 13:46 53.23905 -2.65086 9158 ft 308 kts 270°
2026-04-26 13:46 53.23949 -2.68456 8116 ft 281 kts 267°
2026-04-26 13:46 53.23871 -2.71806 6534 ft 315 kts 262°
2026-04-26 13:47 53.23478 -2.75716 4682 ft 349 kts 256°
2026-04-26 13:47 53.22848 -2.79536 2849 ft 343 kts 253°
2026-04-26 13:47 53.22137 -2.83306 1000 ft 338 kts 252°
2026-04-26 13:47 53.21475 -2.86354 2141 ft 239 kts 258°
2026-04-26 13:48 53.21007 -2.88809 1897 ft 211 kts 250°
2026-04-26 13:48 53.20547 -2.91070 1315 ft 202 kts 247°
2026-04-26 13:48 53.20032 -2.93190 826 ft 194 kts 238°
2026-04-26 13:48 53.19349 -2.95092 457 ft 187 kts 230°
2026-04-26 13:49 53.18521 -2.96701 85 ft 175 kts 220°
2026-04-26 13:49 53.17678 -2.97949 29 ft 145 kts 219°
2026-04-26 13:49 53.17064 -2.98921 172 ft 136 kts 234°
2026-04-26 13:49 53.16574 -3.00486 913 ft 169 kts 261°
2026-04-26 13:50 53.16954 -3.02370 1791 ft 189 kts 320°
2026-04-26 13:50 53.18258 -3.02785 2575 ft 209 kts 21°
2026-04-26 13:50 53.19282 -3.01089 3191 ft 227 kts 71°
2026-04-26 13:50 53.20083 -2.98568 3285 ft 270 kts 59°
2026-04-26 13:51 53.21526 -2.96154 3151 ft 319 kts 35°
2026-04-26 13:51 53.23713 -2.94848 3039 ft 355 kts 12°
2026-04-26 13:51 53.26085 -2.94222 2553 ft 329 kts
2026-04-26 13:51 53.28293 -2.93853 2162 ft 310 kts
2026-04-26 13:52 53.30387 -2.93465 1401 ft 296 kts
2026-04-26 13:52 53.32200 -2.92645 1174 ft 233 kts 24°
2026-04-26 13:52 53.33382 -2.91437 1466 ft 167 kts 54°
2026-04-26 13:52 53.33281 -2.89858 944 ft 177 kts 123°
2026-04-26 13:53 53.33160 -2.87522 490 ft 225 kts 81°
2026-04-26 13:53 53.33376 -2.85148 100 ft 188 kts 88°
2026-04-26 13:53 53.33432 -2.83747 98 ft 43 kts 80°